Wind_Speed
11 11 11 11 11 11 12 11 11 11 11 11 11 11 11 11 11 11 12 12 12 13 13 14 13 13 12 12 12 12 12 12 12 11 11 12 12 12 13 13 13 14 14
11 11 11 11 12 12 13 13 13 13 12 12 12 12 12 12 12 13 13 13 13 13 13 13 13 14 14 13 13 13 13 13 13 12 12 12 13 13 14 14 14 15 15
12 12 12 12 12 13 13 13 13 13 13 13 13 13 13 13 14 14 14 14 14 14 14 14 14 14 14 14 14 14 14 13 13 13 13 14 14 14 14 15 15 15 15
13 12 13 12 13 13 13 13 14 14 13 13 14 14 14 14 14 15 15 14 14 15 15 15 15 15 15 14 14 14 13 13 13 14 14 14 15 15 15 15 15 15 15
14 14 14 14 13 14 14 13 14 14 14 14 14 15 15 15 15 16 16 16 16 16 16 16 16 16 15 15 14 14 14 14 14 14 14 14 14 15 15 15 15 15 15
14 14 14 14 13 13 13 14 14 14 15 15 15 15 15 16 16 16 17 17 17 17 17 17 17 16 16 16 15 15 15 14 14 14 14 14 14 15 15 15 15 15 15
15 15 15 15 15 14 14 14 15 15 16 16 16 16 16 17 17 17 17 17 17 18 18 17 17 17 17 17 16 16 16 15 15 15 15 15 15 15 16 16 16 16 15
16 16 15 15 15 15 15 15 15 16 16 16 17 17 17 17 17 18 18 18 18 18 18 18 18 17 17 17 17 17 16 16 16 16 16 16 16 16 17 17 17 17 16
16 16 16 15 16 15 15 16 16 16 16 17 17 17 17 18 18 18 18 18 18 19 19 19 18 18 18 18 17 17 17 17 17 17 17 17 17 17 17 17 18 18 18
17 16 17 16 15 15 16 16 16 16 16 17 17 18 18 19 19 19 19 19 19 19 19 19 19 19 19 18 17 17 17 17 17 17 17 17 17 17 17 17 18 18 18
17 16 17 17 17 16 16 17 17 17 17 17 18 18 18 19 19 19 19 19 19 19 19 19 19 18 18 18 17 17 18 17 17 17 18 18 18 18 18 18 18 18 18
17 17 18 18 18 17 17 17 18 17 17 18 18 18 18 19 19 19 19 19 20 20 20 19 19 18 18 18 18 17 18 18 18 18 18 18 18 18 18 19 19 19 19
19 19 19 20 19 18 19 19 19 18 18 18 18 19 19 19 20 20 20 20 21 20 20 19 19 19 19 19 19 18 18 18 19 19 19 19 19 19 19 19 19 20 19
19 20 20 20 20 19 19 20 20 20 20 19 20 20 20 20 20 20 21 22 21 21 20 20 20 20 19 19 19 19 19 19 20 20 20 20 19 19 19 19 19 20 20
19 21 22 22 21 20 20 20 20 21 21 21 21 21 21 21 21 21 22 22 22 21 21 21 21 21 20 20 20 21 21 21 21 21 20 20 20 20 20 20 20 20 20
21 21 22 23 22 22 21 21 21 22 22 22 22 22 22 22 22 23 23 23 23 23 22 22 22 21 21 21 21 21 22 22 22 22 21 21 21 21 21 21 21 21 21
22 22 23 23 23 23 23 23 23 22 23 22 23 23 23 23 23 23 23 23 23 23 22 22 22 22 21 21 22 22 22 22 22 22 22 22 21 21 21 21 21 22 22
22 23 23 23 23 23 23 23 24 24 23 23 24 23 23 23 23 24 24 24 23 23 23 23 22 22 22 22 22 22 22 22 22 22 21 21 21 22 22 22 22 22 22
23 23 23 23 23 23 23 24 24 24 24 24 24 24 24 24 24 24 24 24 24 25 24 24 23 23 23 23 23 23 23 23 22 22 21 21 22 22 23 23 23 23 23
24 24 23 24 24 24 24 25 25 25 24 24 24 25 25 25 25 24 25 25 25 26 25 25 25 24 24 23 23 24 23 23 23 23 23 23 23 23 23 23 24 24 23
26 25 25 25 25 26 26 26 25 25 25 25 25 25 25 26 26 26 26 25 25 25 25 25 25 25 25 25 25 24 24 24 24 24 24 24 24 24 25 25 25 25 25
27 27 26 26 26 26 26 25 25 25 26 26 26 26 26 26 26 26 26 26 26 26 25 25 25 25 26 26 26 26 25 26 26 25 25 25 25 26 26 26 26 26 26
27 27 27 27 27 27 26 25 25 26 26 26 27 27 27 27 26 26 26 26 26 25 25 25 25 25 26 26 26 27 27 27 27 26 26 26 26 26 27 27 27 27 27
27 27 28 27 27 27 27 27 27 28 28 28 28 28 27 27 27 27 26 26 26 25 25 25 26 26 25 26 26 27 27 28 27 27 27 27 26 26 27 28 28 28 28
27 27 28 28 28 28 28 28 29 29 29 29 29 29 28 28 28 28 27 27 27 27 27 27 27 27 27 27 27 27 27 27 28 28 27 27 27 27 27 28 28 28 28
28 29 29 29 29 29 29 30 30 30 30 30 30 30 29 29 28 28 28 27 27 28 28 27 28 28 28 28 28 28 27 27 28 29 28 28 28 28 28 28 28 28 28
Wind_Direction
279 276 275 276 278 279 281 282 283 284 287 288 287 288 289 290 292 294 298 301 304 304 305 305 304 301 302 303 300 293 287 285 283 281 276 271 270 268 265 265 266 265 265
281 284 280 279 280 279 279 279 282 284 286 287 287 286 286 287 289 293 296 298 301 302 301 301 301 302 303 301 298 296 293 290 288 284 276 273 273 270 267 265 267 268 267
280 281 282 281 282 282 280 278 281 283 284 285 285 285 284 284 286 289 291 294 296 298 298 298 298 299 300 299 296 294 293 291 288 284 280 276 273 272 269 267 267 268 268
281 283 282 281 284 283 279 278 280 281 282 285 285 284 283 283 284 287 289 291 293 296 296 296 296 295 296 297 295 292 291 290 289 286 283 280 275 274 271 269 268 269 268
278 281 282 280 281 282 280 279 280 280 281 283 284 283 282 281 282 284 286 289 291 294 295 295 296 296 294 293 292 291 289 287 285 284 284 282 279 277 275 272 272 273 272
278 277 278 278 279 281 281 283 281 281 282 283 283 282 280 280 282 284 285 287 290 292 293 294 294 293 292 291 289 289 287 286 284 282 281 281 279 277 277 277 276 276 277
277 276 277 277 278 280 282 283 283 282 283 283 283 282 281 281 281 283 285 286 288 290 291 292 291 291 290 290 287 286 285 283 282 282 281 280 279 276 275 274 274 275 276
278 275 276 276 277 280 283 283 284 283 283 283 283 282 280 281 282 282 283 285 287 289 291 291 290 289 289 290 288 284 283 281 281 280 280 280 278 277 275 273 272 272 273
277 276 277 277 277 279 282 283 282 282 282 282 281 280 280 281 282 284 285 285 286 289 289 289 289 289 289 289 288 286 284 282 281 281 280 280 279 277 277 276 273 271 271
277 277 277 276 276 279 283 283 283 283 282 281 280 280 281 281 282 284 285 286 287 288 290 289 288 287 286 287 286 286 285 283 281 281 280 279 278 277 276 276 275 274 273
276 277 277 276 276 278 282 283 285 285 285 284 281 281 280 280 282 284 285 285 286 288 289 288 288 286 284 285 285 285 285 284 283 281 281 279 277 277 276 275 275 275 274
273 275 277 280 282 283 283 283 283 285 287 286 284 283 282 281 282 282 284 285 286 288 287 286 286 286 284 282 282 284 284 283 283 283 281 279 278 277 277 275 274 275 275
274 276 277 280 282 282 282 283 282 284 287 287 286 285 285 283 282 281 282 284 286 287 286 285 285 284 283 282 281 281 281 280 281 282 281 279 277 277 277 276 275 274 274
274 275 277 279 280 281 281 282 282 284 286 287 287 286 285 284 282 282 283 285 285 285 285 285 285 284 282 280 280 280 280 280 280 281 281 279 277 276 275 274 274 274 274
277 277 277 277 277 278 279 280 282 284 285 286 286 285 285 283 283 284 285 284 284 284 285 285 284 283 279 277 277 277 279 280 279 280 278 279 278 275 275 273 274 275 275
276 277 277 277 277 278 278 280 280 281 284 285 285 284 284 284 283 283 282 282 282 283 284 284 283 282 280 278 277 277 278 279 281 281 279 279 279 277 276 274 275 275 275
274 276 276 276 275 276 278 279 280 280 282 283 284 285 284 284 284 284 282 282 281 283 284 284 282 281 280 280 279 278 278 279 281 283 283 280 279 277 275 276 275 274 275
276 277 278 275 275 275 276 277 279 280 281 283 284 284 283 283 284 283 282 281 280 281 283 283 282 280 279 279 279 278 278 278 279 281 283 281 278 278 276 276 276 277 276
278 277 277 275 275 275 276 276 277 279 280 281 281 282 282 283 284 283 281 281 281 281 282 281 280 279 277 278 277 278 277 278 279 279 281 282 280 280 277 275 275 275 276
281 280 276 274 274 274 275 276 277 279 280 281 282 281 282 282 282 282 281 281 281 281 282 281 280 278 276 278 278 277 277 278 278 279 279 279 280 279 278 277 276 275 274
281 280 276 274 273 274 274 276 277 278 280 280 281 282 282 283 283 282 282 281 281 281 281 281 280 278 276 276 276 277 276 276 277 278 277 278 278 277 278 278 277 276 276
279 278 276 274 275 274 276 276 276 279 281 281 280 281 282 283 284 284 283 282 281 281 281 280 279 278 276 277 275 276 276 275 276 275 275 277 277 277 278 279 278 277 277
278 276 275 275 274 274 275 276 277 279 281 281 281 281 282 282 282 283 284 284 283 282 281 281 281 280 279 278 277 277 276 275 276 274 274 277 278 278 277 278 278 278 275
277 276 276 274 274 273 275 277 279 280 282 282 283 283 283 282 281 280 281 283 284 283 284 283 282 282 281 280 279 278 275 275 275 276 275 275 277 278 278 278 277 277 276
277 276 276 275 275 275 276 277 278 280 281 282 282 283 282 282 281 280 280 281 281 282 283 284 283 282 281 281 280 280 278 277 275 275 275 275 276 277 279 279 278 277 276
277 276 275 275 275 276 276 277 279 279 281 282 282 281 281 281 281 280 279 279 280 281 281 282 282 282 282 280 279 278 278 277 276 275 275 275 276 277 278 278 278 278 277
Height
5830 5830 5830 5830 5830 5830 5831 5831 5831 5831 5831 5831 5831 5831 5831 5831 5831 5830 5830 5829 5828 5828 5827 5826 5825 5825 5824 5824 5823 5823 5822 5822 5822 5822 5822 5822 5822 5822 5823 5824 5825 5825 5826
5827 5827 5827 5827 5828 5828 5828 5828 5828 5828 5828 5828 5828 5828 5828 5828 5828 5828 5827 5827 5826 5825 5825 5824 5823 5822 5822 5821 5821 5820 5820 5819 5819 5819 5819 5819 5820 5820 5820 5821 5821 5822 5822
5824 5825 5825 5825 5825 5825 5825 5825 5825 5825 5825 5825 5825 5825 5825 5825 5825 5825 5825 5824 5823 5823 5822 5821 5821 5820 5819 5818 5818 5817 5817 5816 5816 5816 5816 5816 5816 5816 5817 5817 5818 5818 5818
5822 5822 5822 5822 5822 5822 5822 5822 5822 5822 5822 5822 5822 5822 5822 5822 5822 5822 5821 5821 5820 5820 5819 5818 5817 5817 5816 5815 5815 5814 5814 5813 5813 5813 5813 5813 5813 5813 5814 5814 5814 5814 5815
5819 5819 5819 5819 5819 5819 5818 5818 5819 5819 5819 5818 5818 5818 5818 5818 5818 5818 5818 5817 5817 5816 5815 5815 5814 5813 5813 5812 5811 5811 5811 5810 5810 5810 5809 5809 5809 5810 5810 5811 5811 5811 5811
5816 5816 5816 5816 5816 5816 5816 5815 5816 5816 5815 5815 5815 5815 5815 5815 5815 5814 5814 5814 5813 5812 5812 5811 5810 5810 5809 5808 5808 5807 5807 5807 5806 5806 5806 5806 5806 5806 5806 5807 5807 5807 5807
5812 5812 5813 5813 5812 5812 5812 5812 5812 5812 5811 5811 5811 5810 5810 5810 5810 5810 5810 5809 5809 5808 5808 5807 5806 5805 5805 5804 5803 5803 5803 5803 5803 5802 5802 5802 5802 5802 5802 5803 5803 5803 5804
5809 5809 5809 5809 5809 5809 5809 5808 5808 5808 5807 5807 5807 5806 5806 5806 5806 5806 5806 5805 5805 5804 5803 5802 5802 5801 5800 5800 5799 5799 5799 5799 5798 5798 5798 5798 5798 5798 5798 5799 5799 5799 5799
5805 5805 5805 5805 5805 5805 5805 5804 5804 5804 5803 5803 5802 5802 5802 5801 5801 5801 5801 5801 5800 5800 5799 5798 5797 5796 5796 5795 5795 5794 5794 5794 5794 5794 5794 5794 5794 5793 5793 5794 5794 5795 5795
5801 5801 5801 5801 5801 5801 5800 5800 5799 5799 5799 5798 5798 5797 5797 5797 5796 5796 5796 5796 5795 5795 5794 5793 5792 5792 5791 5791 5790 5790 5790 5789 5789 5789 5789 5789 5789 5789 5789 5789 5789 5790 5790
5797 5797 5797 5797 5796 5796 5796 5795 5795 5794 5794 5793 5793 5792 5792 5792 5791 5791 5791 5791 5790 5790 5789 5788 5788 5787 5787 5786 5786 5786 5785 5785 5784 5784 5784 5784 5784 5784 5784 5784 5784 5785 5785
5793 5793 5792 5792 5792 5791 5791 5791 5790 5790 5789 5788 5788 5788 5787 5787 5786 5786 5786 5785 5785 5785 5784 5783 5783 5782 5782 5782 5781 5781 5780 5780 5780 5779 5779 5779 5779 5779 5779 5779 5779 5779 5780
5788 5788 5788 5787 5787 5787 5786 5786 5785 5785 5784 5784 5783 5782 5782 5782 5781 5781 5781 5780 5780 5779 5778 5778 5778 5777 5777 5777 5776 5776 5775 5775 5775 5774 5774 5774 5774 5774 5774 5774 5774 5774 5774
5783 5783 5783 5782 5782 5781 5781 5780 5780 5779 5779 5778 5778 5777 5776 5776 5775 5775 5775 5774 5774 5773 5773 5772 5772 5772 5771 5771 5771 5771 5770 5770 5770 5769 5769 5769 5768 5768 5768 5768 5768 5768 5768
5777 5777 5777 5777 5776 5776 5776 5775 5775 5774 5773 5772 5772 5771 5771 5770 5770 5769 5769 5768 5768 5767 5767 5766 5766 5766 5765 5765 5765 5765 5765 5764 5764 5764 5763 5763 5763 5763 5762 5762 5762 5762 5762
5772 5772 5771 5771 5771 5770 5770 5769 5769 5768 5767 5766 5766 5765 5765 5764 5764 5763 5763 5762 5762 5761 5761 5760 5760 5759 5759 5759 5759 5759 5759 5758 5758 5757 5757 5757 5757 5756 5756 5756 5756 5756 5756
5766 5765 5765 5764 5764 5764 5764 5763 5762 5762 5761 5760 5759 5759 5758 5758 5757 5757 5756 5756 5755 5755 5754 5754 5753 5753 5753 5752 5752 5752 5752 5752 5752 5751 5751 5750 5750 5750 5750 5750 5750 5750 5750
5759 5759 5758 5758 5758 5757 5757 5756 5756 5755 5754 5753 5753 5752 5751 5751 5750 5750 5749 5749 5748 5748 5748 5747 5747 5747 5746 5746 5746 5745 5745 5745 5745 5745 5745 5744 5744 5743 5743 5743 5743 5743 5743
5753 5752 5751 5751 5751 5751 5750 5749 5749 5748 5747 5747 5746 5745 5745 5744 5743 5743 5742 5742 5742 5741 5741 5740 5740 5740 5740 5739 5739 5738 5738 5738 5738 5739 5738 5738 5737 5737 5737 5737 5737 5737 5736
5746 5745 5745 5744 5744 5744 5743 5742 5742 5741 5741 5740 5739 5738 5737 5737 5736 5736 5735 5735 5734 5734 5734 5733 5733 5733 5733 5732 5732 5731 5731 5732 5732 5732 5731 5731 5731 5730 5730 5729 5730 5730 5729
5739 5738 5737 5737 5736 5736 5735 5735 5735 5734 5734 5733 5732 5731 5730 5730 5729 5728 5728 5727 5727 5726 5726 5726 5725 5725 5725 5725 5724 5724 5724 5724 5724 5724 5724 5724 5723 5723 5722 5722 5722 5722 5722
5732 5731 5730 5729 5729 5728 5727 5727 5727 5727 5726 5725 5725 5724 5723 5722 5721 5721 5720 5719 5719 5718 5718 5718 5717 5717 5717 5717 5716 5716 5716 5716 5716 5716 5716 5716 5715 5715 5715 5714 5714 5714 5713
5725 5724 5723 5722 5722 5721 5721 5720 5720 5719 5719 5718 5717 5716 5715 5715 5714 5713 5712 5711 5711 5710 5710 5710 5709 5709 5709 5709 5709 5708 5708 5707 5708 5708 5707 5707 5707 5706 5706 5706 5705 5705 5705
5717 5716 5715 5715 5714 5714 5713 5713 5712 5711 5711 5710 5709 5709 5708 5707 5706 5705 5705 5704 5703 5703 5702 5702 5701 5701 5701 5701 5700 5699 5699 5699 5699 5699 5699 5699 5698 5698 5698 5697 5697 5696 5696
5709 5708 5707 5707 5706 5706 5705 5705 5704 5703 5702 5702 5701 5700 5699 5698 5698 5697 5697 5696 5696 5695 5694 5694 5693 5693 5693 5692 5692 5691 5691 5690 5690 5690 5690 5690 5690 5690 5689 5689 5688 5688 5688
5700 5700 5699 5698 5698 5697 5697 5696 5695 5694 5694 5693 5692 5691 5691 5690 5689 5689 5688 5687 5687 5686 5686 5685 5685 5684 5684 5683 5683 5682 5682 5681 5681 5681 5681 5681 5681 5681 5680 5680 5679 5679 5679